Date,TemperatureHighF,TemperatureAvgF,TemperatureLowF,DewpointHighF,DewpointAvgF,DewpointLowF,HumidityHigh,HumidityAvg,HumidityLow,PressureMaxIn,PressureMinIn,WindSpeedMaxMPH,WindSpeedAvgMPH,GustSpeedMaxMPH,PrecipitationSumIn
2013-1-25,11,6,0,1,-3,-8,74,67,63,0.00,40.00,17,10,24,0.00
2013-1-26,21,9,-7,12,1,-11,83,70,57,0.00,40.00,14,5,19,0.00
2013-1-27,33,26,19,30,20,10,100,79,63,0.00,40.00,11,6,15,0.00
2013-1-28,35,31,28,34,31,28,100,100,99,0.00,40.00,11,4,16,0.00
2013-1-29,34,31,26,32,27,19,100,86,78,0.00,40.00,17,10,26,0.00
2013-1-30,26,16,7,19,9,0,86,77,70,0.00,40.00,22,15,30,0.00
2013-1-31,7,-2,-10,0,-10,-17,73,68,63,0.00,40.00,23,5,32,0.00
2013-2-1,0,-6,-17,-2,-13,-22,86,74,56,0.00,40.00,11,5,16,0.00
2013-2-2,10,4,-2,5,-2,-6,88,79,59,0.00,40.00,9,4,12,0.00
2013-2-3,15,9,1,7,3,-2,88,77,62,0.00,40.00,14,6,19,0.00
2013-2-4,16,9,1,12,1,-4,91,70,50,0.00,40.00,12,5,20,0.00
2013-2-5,28,20,2,25,14,0,97,80,51,0.00,40.00,17,8,26,0.00
2013-2-6,23,16,5,19,13,3,94,89,81,0.00,40.00,12,-2,17,0.00
2013-2-7,28,25,21,25,20,16,100,86,72,0.00,40.00,11,7,19,0.00
2013-2-8,27,18,4,21,14,3,96,86,69,0.00,40.00,11,6,19,0.00
2013-2-9,31,28,24,30,26,21,100,96,92,0.00,40.00,17,10,24,0.00
2013-2-10,29,28,27,28,27,27,100,99,97,0.00,40.00,15,10,24,0.00
2013-2-11,29,22,6,28,18,5,100,84,74,0.00,40.00,22,15,32,0.00
2013-2-12,35,22,13,21,16,12,97,83,55,0.00,40.00,13,7,19,0.00
2013-2-13,41,28,16,32,24,16,99,86,57,0.00,40.00,11,5,16,0.00
2013-2-14,32,22,10,32,14,0,100,74,44,0.00,40.00,18,10,26,0.00
2013-2-15,18,8,1,5,2,-4,94,78,55,0.00,40.00,14,8,20,0.00
2013-2-16,23,7,-3,14,3,-6,96,84,61,0.00,40.00,7,3,11,0.00
2013-2-17,31,19,2,25,15,1,96,84,67,0.00,40.00,17,9,30,0.00
2013-2-18,33,20,6,32,16,1,98,86,75,0.00,40.00,23,12,32,0.00
2013-2-19,6,2,-7,1,-5,-13,84,73,63,0.00,40.00,22,15,32,0.00
2013-2-20,20,2,-12,3,-6,-15,90,71,45,0.00,40.00,7,4,10,0.00
2013-2-21,22,12,-1,18,5,-6,92,75,55,0.00,40.00,11,5,16,0.00
2013-2-22,30,24,20,23,21,18,100,91,72,0.00,40.00,11,6,19,0.00
2013-2-23,43,24,10,27,20,9,100,84,46,0.00,40.00,11,5,13,0.00
2013-2-24,36,18,-1,28,14,-2,98,86,61,0.00,40.00,7,2,11,0.00
2013-2-25,41,23,9,25,18,9,100,84,47,0.00,40.00,4,2,9,0.00
2013-2-26,34,25,11,30,22,10,100,88,73,0.00,40.00,12,-4,18,0.00
2013-2-27,40,30,22,27,23,21,93,76,52,0.00,40.00,17,9,27,0.00
2013-2-28,30,28,20,25,22,14,91,79,70,0.00,40.00,12,7,19,0.00
2013-3-1,30,23,14,19,16,7,89,77,63,0.00,40.00,10,5,16,0.00
2013-3-2,37,18,0,19,10,0,96,73,40,0.00,40.00,6,2,9,0.00
2013-3-3,33,26,18,16,12,10,76,59,43,0.00,40.00,16,1,22,0.00
2013-3-4,26,24,22,23,20,12,100,85,54,0.00,40.00,19,10,29,0.00
2013-3-5,29,25,22,28,24,19,100,95,84,0.00,40.00,13,7,17,0.00
2013-3-6,26,20,4,21,16,0,95,86,73,0.00,40.00,9,4,14,0.00
2013-3-7,33,18,-2,19,12,-2,97,79,55,0.00,40.00,15,5,21,0.00
2013-3-8,37,27,15,30,23,14,99,85,67,0.00,40.00,9,-2,14,0.00
2013-3-9,36,35,32,36,34,30,100,99,94,0.00,40.00,9,5,13,0.00
2013-3-10,32,29,27,30,26,23,96,87,81,0.00,40.00,18,13,28,0.00
2013-3-11,30,26,17,23,21,16,93,85,71,0.00,40.00,14,10,21,0.00
2013-3-12,28,23,19,21,17,10,92,77,52,0.00,40.00,21,12,29,0.00
2013-3-13,36,21,5,19,15,5,99,80,49,0.00,40.00,14,6,22,0.00
2013-3-14,45,31,23,30,26,19,99,82,54,0.00,40.00,11,-3,16,0.00
2013-3-15,34,30,23,34,29,23,100,96,86,0.00,40.00,11,6,17,0.00
2013-3-16,22,17,8,21,12,1,99,81,63,0.00,40.00,14,10,21,0.00
2013-3-17,27,14,-2,19,6,-4,93,73,56,0.00,40.00,17,8,26,0.00
2013-3-18,30,20,11,30,17,7,100,89,77,0.00,40.00,24,17,34,0.00
2013-3-19,20,11,2,7,3,-2,89,70,49,0.00,40.00,26,16,32,0.00
2013-3-20,19,11,2,7,1,-4,75,65,55,0.00,40.00,24,15,34,0.00
2013-3-21,26,13,-2,12,5,-4,93,71,51,0.00,40.00,7,4,12,0.00
2013-3-22,44,20,0,19,11,0,98,72,34,0.00,40.00,7,3,8,0.00
2013-3-23,49,27,7,27,18,7,97,74,33,0.00,40.00,9,4,11,0.00
2013-3-24,35,30,25,28,25,23,99,83,63,0.00,40.00,13,0,21,0.00
2013-3-25,36,30,23,27,21,18,88,71,52,0.00,40.00,19,11,27,0.00
2013-3-26,44,28,19,28,22,18,97,79,48,0.00,40.00,13,6,18,0.00
2013-3-27,46,29,13,30,20,12,100,71,36,0.00,40.00,7,3,12,0.00
2013-3-28,43,32,14,30,23,14,99,74,49,0.00,40.00,11,3,14,0.00
2013-3-29,47,39,31,41,35,28,97,87,71,0.00,40.00,12,-1,17,0.00
2013-3-30,48,42,33,45,40,32,100,93,80,0.00,40.00,12,8,20,0.00
2013-3-31,37,32,21,34,24,16,100,76,48,0.00,40.00,24,15,34,0.00
2013-4-1,32,23,15,21,17,14,93,77,57,0.00,40.00,16,10,22,0.00
2013-4-2,35,26,14,23,17,14,99,74,43,0.00,40.00,14,6,18,0.00
2013-4-3,45,32,15,37,26,14,98,79,54,0.00,40.00,21,2,34,0.00
2013-4-4,47,40,30,37,31,25,98,72,50,0.00,40.00,19,11,34,0.00
2013-4-5,40,32,25,34,28,21,98,85,50,0.00,40.00,16,8,23,0.00
2013-4-6,49,40,34,41,36,34,98,89,69,0.00,40.00,16,2,22,0.00
2013-4-7,47,40,35,41,36,34,98,88,71,0.00,40.00,12,6,17,0.00
2013-4-8,43,40,38,43,39,37,100,97,94,0.00,40.00,11,-5,18,0.00
2013-4-9,41,36,31,37,30,27,96,79,61,0.00,40.00,17,10,29,0.00
2013-4-10,40,36,33,28,24,19,77,62,45,0.00,40.00,17,10,27,0.00
2013-4-11,36,32,28,32,29,21,100,90,58,0.00,40.00,18,11,33,0.00
2013-4-12,36,31,27,32,29,27,100,94,76,0.00,40.00,12,7,17,0.00
2013-4-13,36,30,19,30,26,18,100,88,68,0.00,40.00,10,-3,14,0.00
2013-4-14,33,30,21,32,28,19,100,95,81,0.00,40.00,21,9,34,0.00
2013-4-15,38,35,32,34,33,30,100,91,83,0.00,40.00,22,15,34,0.00
2013-4-16,46,36,31,34,30,27,94,81,58,0.00,40.00,16,8,24,0.00
2013-4-17,40,35,30,36,32,28,100,90,81,0.00,40.00,12,6,19,0.00
2013-4-18,32,31,30,32,31,30,100,100,99,0.00,40.00,23,2,35,0.00
2013-4-19,38,32,26,30,24,16,100,76,43,0.00,40.00,23,16,38,0.00
2013-4-20,46,30,15,23,17,9,98,63,26,0.00,40.00,10,4,14,0.00
2013-4-21,47,38,30,43,35,21,99,91,65,0.00,40.00,19,10,30,0.00
2013-4-22,40,36,31,36,32,25,100,86,54,0.00,40.00,16,9,24,0.00
2013-4-23,40,33,25,30,23,18,100,72,42,0.00,40.00,15,10,23,0.00
2013-4-24,51,37,24,39,31,23,97,81,42,0.00,40.00,26,3,34,0.00
2013-4-25,50,40,29,34,31,27,98,73,42,0.00,40.00,16,8,24,0.00
2013-4-26,71,55,39,45,38,32,90,57,31,0.00,40.00,12,6,18,0.00
2013-4-27,74,57,33,48,37,32,97,55,27,0.00,40.00,12,5,22,0.00
2013-4-28,81,64,51,55,50,46,94,65,36,0.00,40.00,21,12,30,0.00
2013-4-29,75,60,43,54,43,36,93,59,27,0.00,40.00,12,6,19,0.00
2013-4-30,70,62,53,63,48,30,95,64,27,0.00,40.00,26,13,36,0.00
2013-5-1,53,42,37,39,32,27,80,66,54,0.00,40.00,18,11,26,0.00
2013-5-2,45,38,33,32,28,27,85,69,53,0.00,40.00,18,12,29,0.00
2013-5-3,43,36,30,39,31,28,100,84,62,0.00,40.00,14,9,24,0.00
2013-5-4,43,39,33,43,38,32,100,99,96,0.00,40.00,10,-3,19,0.00
2013-5-5,66,50,38,52,45,37,99,84,58,0.00,40.00,9,5,15,0.00
2013-5-6,76,60,42,54,48,41,99,68,41,0.00,40.00,7,3,14,0.00
2013-5-7,78,64,47,55,49,45,98,63,34,0.00,40.00,12,4,24,0.00
2013-5-8,75,62,56,61,54,48,97,77,43,0.00,40.00,15,5,22,0.00
2013-5-9,58,52,45,57,49,34,98,90,67,0.00,40.00,16,7,27,0.00
2013-5-10,67,50,36,39,28,-100,80,49,22,0.00,40.00,25,6,42,0.00
2013-5-11,54,46,40,43,28,-100,86,54,36,0.00,40.00,26,16,42,0.00
2013-5-12,58,45,29,28,25,21,87,49,25,0.00,40.00,15,8,24,0.00
2013-5-13,74,55,36,50,37,23,77,53,36,0.00,40.00,21,8,32,0.00
2013-5-14,96,70,45,55,47,36,97,53,18,0.00,40.00,25,3,41,0.00
2013-5-15,82,67,45,52,47,43,93,54,26,0.00,40.00,24,8,34,0.00
2013-5-16,82,65,51,50,28,-100,86,47,29,0.00,40.00,16,7,26,0.00
2013-5-17,68,60,56,59,46,-100,98,76,30,0.00,40.00,15,10,24,0.00
2013-5-18,78,65,55,70,63,55,99,92,76,0.00,40.00,16,8,26,0.00
2013-5-19,79,69,63,72,67,63,98,92,73,0.00,40.00,16,0,26,0.00
2013-5-20,71,64,56,66,62,55,99,92,77,0.00,40.00,20,8,29,0.00
2013-5-21,56,49,46,55,49,46,99,99,98,0.00,40.00,12,7,19,0.00
2013-5-22,51,48,44,50,47,43,99,97,91,0.00,40.00,14,9,28,0.00
2013-5-23,65,53,43,45,38,32,96,61,30,0.00,40.00,12,7,22,0.00
2013-5-24,66,54,39,55,42,36,98,67,37,0.00,40.00,13,-1,26,0.00
2013-5-25,64,57,53,54,52,50,98,84,66,0.00,40.00,18,11,28,0.00
2013-5-26,59,56,52,52,46,39,86,70,50,0.00,40.00,22,11,33,0.00
2013-5-27,63,58,54,57,54,48,97,86,73,0.00,40.00,15,9,24,0.00
2013-5-28,61,57,54,61,56,54,99,96,93,0.00,40.00,12,4,19,0.00
2013-5-29,76,67,54,72,63,54,98,90,62,0.00,40.00,15,0,25,0.00
2013-5-30,75,68,64,68,65,64,98,93,76,0.00,40.00,20,10,31,0.00
2013-5-31,73,66,57,64,57,54,98,76,54,0.00,40.00,23,10,35,0.00
2013-6-1,70,58,50,61,54,46,98,86,68,0.00,40.00,22,8,32,0.00
2013-6-2,66,56,47,50,44,41,95,68,41,0.00,40.00,12,7,22,0.00
2013-6-3,67,59,44,52,46,43,98,65,41,0.00,40.00,11,-3,16,0.00
2013-6-4,61,57,54,59,52,45,99,86,63,0.00,40.00,18,9,25,0.00
2013-6-5,62,56,51,61,55,50,99,97,90,0.00,40.00,11,6,17,0.00
2013-6-6,58,54,50,54,53,50,99,93,84,0.00,40.00,9,5,14,0.00
2013-6-7,65,56,49,55,53,48,98,89,68,0.00,40.00,4,2,7,0.00
2013-6-8,68,60,50,59,54,50,99,83,61,0.00,40.00,13,5,17,0.00
2013-7-10,79,74,62,63,58,55,97,60,46,0.00,40.00,14,7,21,0.00
2013-7-11,82,72,56,66,59,55,99,70,45,0.00,40.00,13,5,19,0.00
2013-7-12,87,78,69,68,63,59,74,62,50,0.00,40.00,19,12,29,0.00
2013-7-13,78,73,68,72,69,63,98,87,61,0.00,40.00,17,9,29,0.00
2013-7-14,82,74,69,73,69,61,97,83,69,0.00,40.00,11,5,18,0.00
2013-7-15,86,76,67,72,69,66,98,81,56,0.00,40.00,10,4,16,0.00
2013-7-16,90,82,73,75,73,70,97,75,52,0.00,40.00,16,7,23,0.00
2013-7-17,92,82,70,77,73,70,97,75,51,0.00,40.00,13,6,34,0.00
2013-7-18,92,84,74,75,73,70,97,73,50,0.00,40.00,19,10,30,0.00
2013-7-19,83,77,69,75,66,59,97,72,46,0.00,40.00,16,9,24,0.00
2013-7-22,85,78,66,73,62,57,80,60,48,0.00,40.00,18,11,24,0.00
2013-7-23,76,66,58,59,56,50,97,72,43,0.00,40.00,11,6,16,0.00
2013-7-24,80,69,57,61,57,54,98,70,41,0.00,40.00,6,2,13,0.00
2013-7-25,77,70,61,68,64,61,99,80,57,0.00,40.00,11,5,20,0.00
2013-7-26,68,61,53,64,55,48,98,81,60,0.00,40.00,20,-8,30,0.00
2013-7-27,66,56,47,50,47,45,100,76,48,0.00,40.00,17,8,32,0.00
2013-7-28,73,61,47,55,50,46,98,70,48,0.00,40.00,12,6,19,0.00
2013-7-29,77,67,49,63,55,48,100,70,44,0.00,40.00,11,4,16,0.00
2013-7-30,72,65,61,66,63,61,99,94,77,0.00,40.00,9,3,13,0.00
2013-7-31,79,69,58,70,57,50,99,69,39,0.00,40.00,18,8,30,0.00
2013-8-1,81,69,51,64,56,50,98,68,40,0.00,40.00,9,4,15,0.00
2013-8-2,77,66,54,59,54,48,98,70,38,0.00,40.00,11,5,18,0.00
2013-8-3,76,64,49,61,51,45,100,67,35,0.00,40.00,11,-10,17,0.00
2013-8-4,76,62,48,59,53,48,99,76,42,0.00,40.00,12,-14,16,0.00
2013-8-5,80,69,61,68,62,57,99,83,57,0.00,40.00,11,5,17,0.00
2013-8-6,83,69,54,70,63,54,99,83,58,0.00,40.00,12,6,21,0.00
2013-8-7,75,65,57,61,55,48,99,73,40,0.00,40.00,10,4,17,0.00
2013-8-8,78,67,54,64,58,54,99,78,50,0.00,40.00,11,4,15,0.00
2013-8-9,74,67,54,61,53,48,99,64,43,0.00,40.00,16,8,22,0.00
2013-8-10,76,67,54,61,55,52,99,69,45,0.00,40.00,6,2,9,0.00
2013-8-11,82,70,60,64,61,57,98,75,46,0.00,40.00,6,1,10,0.00
2013-11-8,23,23,23,23,23,23,100,100,100,0.00,40.00,2,2,4,0.00
2013-11-9,-200,0,200,-100,-100,-100,0,0,100,0.00,40.00,12,12,17,0.00
2013-11-10,41,36,31,32,29,27,92,77,61,0.00,40.00,14,7,22,0.00
2013-11-11,31,27,23,27,20,14,84,77,70,0.00,40.00,14,12,25,0.00
2013-11-13,39,39,39,36,36,36,86,86,86,0.00,40.00,6,6,11,0.00
2013-11-14,36,36,36,34,34,34,93,93,93,0.00,40.00,3,3,4,0.00